Content
SEND FEEDBACK

Daily
Averages
Monthly
Summary
United Kingdom

LONDON, ENGLAND


Home > Europe > United Kingdom > England
Elevation: 203 feet     Latitude: 51 09N     Longitude: 000 11W

WEATHER
 
SELECT A DAY
Number of Records: 299,385;   Date Range: 7/1/96 - 12/16/14
 
SHARE

PRINT THIS DATA

[ ← Previous Day ]
WEATHER ALMANAC - JANUARY 19, 2013
[ Next Day → ]
[ °C ]   °F
Weather ElementAverageHighLow
Temperature31.8 °F33.8 °F (11:20 am)30.2 °F (12:50 am)
Dewpoint27.5 °F28.4 °F (12:50 am)24.8 °F (9:50 pm)
Humidity84.3 %93 % (12:50 am)75 % (9:50 pm)
Barometer29.42 in29.44 in (9:20 am)29.39 in (1:20 am)
Wind Speed11.2 mph15 mph (2:50 pm)
Wind Gust25.3 mph (1:50 pm)
Weather ElementAverage
Visibility4.2 mi
Wind DirectionENE (51.9 °)

Weather ElementTotal
Precipitation---
Heating Degree Days33 (Base 65)
Averaged from 47 records on January 19, 2013
WEATHER CONDITIONS BREAKOUT
WIND DIRECTION BREAKOUT
WEATHER BY HOUR - JANUARY 19, 2013
[ °C ]   °F
Local TimeTemperatureDewpointHumidityBarometerVisibilityWind DirectionWind SpeedGust SpeedPrecipitationEventsConditions
12:50 AM30.2 °F28.4 °F93 %29.42 in1.9 miENE (70°)9.2 mphSnowLight Snow
1:20 AM30.2 °F28.4 °F93 %29.39 in1.9 miENE (70°)9.2 mphSnowLight Snow
1:50 AM30.2 °F28.4 °F93 %29.39 in1.9 miENE (60°)9.2 mphSnowLight Snow
2:20 AM30.2 °F28.4 °F93 %29.42 in2.5 miENE (60°)10.4 mphSnowLight Snow
2:50 AM30.2 °F28.4 °F93 %29.42 in3.1 miENE (60°)10.4 mphSnowLight Snow
3:20 AM30.2 °F28.4 °F93 %29.39 in3.1 miENE (60°)10.4 mphSnowLight Snow
3:50 AM30.2 °F28.4 °F93 %29.39 in3.1 miENE (70°)11.5 mphSnowLight Snow
4:20 AM30.2 °F28.4 °F93 %29.39 in3.1 miENE (60°)11.5 mphHaze
4:50 AM30.2 °F28.4 °F93 %29.39 in3.7 miENE (70°)10.4 mphMostly Cloudy
5:20 AM30.2 °F26.6 °F86 %29.39 in3.7 miEast (80°)9.2 mphMostly Cloudy
5:50 AM30.2 °F26.6 °F86 %29.39 in2.5 miENE (70°)10.4 mphHaze
6:20 AM30.2 °F26.6 °F86 %29.39 in3.7 miENE (70°)9.2 mphMostly Cloudy
6:50 AM32.0 °F28.4 °F87 %29.39 in3.7 miENE (70°)9.2 mphMostly Cloudy
7:20 AM32.0 °F26.6 °F80 %29.39 in3.7 miENE (60°)11.5 mphOvercast
7:50 AM32.0 °F26.6 °F80 %29.39 in4.3 miENE (60°)9.2 mphOvercast
8:20 AM32.0 °F28.4 °F87 %29.42 in4.3 miENE (60°)8.1 mphMostly Cloudy
8:50 AM32.0 °F28.4 °F87 %29.42 in4.3 miENE (70°)5.8 mphMostly Cloudy
9:20 AM32.0 °F28.4 °F87 %29.44 in3.7 miENE (60°)6.9 mphOvercast
9:50 AM32.0 °F28.4 °F87 %29.44 in5.0 miENE (60°)9.2 mphMostly Cloudy
10:20 AM32.0 °F28.4 °F87 %29.44 in4.3 miENE (60°)11.5 mphOvercast
10:50 AM32.0 °F28.4 °F87 %29.42 in4.3 miENE (60°)10.4 mphOvercast
11:20 AM33.8 °F28.4 °F81 %29.42 in4.3 miENE (60°)10.4 mphMostly Cloudy
11:50 AM33.8 °F28.4 °F81 %29.42 in3.7 miNE (50°)10.4 mphOvercast
12:20 PM33.8 °F28.4 °F81 %29.39 in3.7 miNE (50°)10.4 mph21.9 mphOvercast
12:50 PM33.8 °F28.4 °F81 %29.39 in3.1 miENE (60°)10.4 mphHaze
1:20 PM33.8 °F28.4 °F81 %29.39 in3.1 miNE (50°)10.4 mphHaze
1:50 PM33.8 °F28.4 °F81 %29.39 in3.1 miENE (60°)13.8 mph25.3 mphRain-SnowLight Rain Showers
2:20 PM33.8 °F28.4 °F81 %29.42 in4.3 miNE (50°)13.8 mphLight Drizzle
2:50 PM33.8 °F28.4 °F81 %29.42 in5.6 miNE (40°)15.0 mphSnowLight Snow Grains
3:20 PM32.0 °F28.4 °F87 %29.42 in5.6 miNE (50°)11.5 mphSnowLight Snow Grains
3:50 PM32.0 °F28.4 °F87 %29.42 in4.3 miNE (40°)12.7 mphSnowLight Snow Grains
4:20 PM32.0 °F28.4 °F87 %29.44 in3.7 miNE (50°)10.4 mphSnowLight Snow Grains
4:50 PM32.0 °F28.4 °F87 %29.44 in3.7 miENE (60°)10.4 mphSnowLight Snow Grains
5:20 PM32.0 °F28.4 °F87 %29.44 in4.3 miNE (40°)13.8 mphSnowLight Snow Grains
5:50 PM32.0 °F26.6 °F80 %29.44 in4.3 miNE (40°)11.5 mphOvercast
6:20 PM32.0 °F26.6 °F80 %29.44 in5.6 miNE (40°)12.7 mphOvercast
6:50 PM32.0 °F26.6 °F80 %29.44 in5.0 miNNE (30°)12.7 mphMostly Cloudy
7:20 PM32.0 °F26.6 °F80 %29.44 in5.6 miNNE (30°)13.8 mphMostly Cloudy
7:50 PM32.0 °F26.6 °F80 %29.44 in5.6 miNNE (30°)15.0 mphMostly Cloudy
8:20 PM32.0 °F26.6 °F80 %29.44 in5.6 miNNE (30°)13.8 mphMostly Cloudy
8:50 PM32.0 °F26.6 °F80 %29.44 in5.6 miNNE (30°)13.8 mphMostly Cloudy
9:20 PM32.0 °F26.6 °F80 %29.44 in5.6 miNNE (30°)13.8 mphMostly Cloudy
9:50 PM32.0 °F24.8 °F75 %29.44 in6.2 miNE (40°)12.7 mphMostly Cloudy
10:20 PM32.0 °F24.8 °F75 %29.44 in6.2 miNNE (30°)12.7 mphMostly Cloudy
10:50 PM32.0 °F24.8 °F75 %29.44 in5.6 miNNE (30°)12.7 mphMostly Cloudy
11:20 PM32.0 °F24.8 °F75 %29.44 in5.6 miNNE (30°)11.5 mphMostly Cloudy
11:50 PM32.0 °F24.8 °F75 %29.44 in5.6 miNNE (30°)11.5 mphOvercast
Hourly data recorded from EGKK, located miles away from London, England







STORIES FROM OUR PARTNERS